Home   Weather   St. Croix Falls   Past weeks

Flag for USA Past Weather in St. Croix Falls, Wisconsin, USA — Yesterday and Last 2 Weeks

Now
50 °F

Clear.


Feels Like: 50 °F
Forecast: 47 / 66 °F
Wind: No wind

Location: L O Simenstad Municipal Airport

Current Time: Sep 29, 2016 at 12:10:07 AM

Latest Report: Sep 28, 2016 at 11:15 PM


Visibility: 10 mi

Pressure: 30.40 "Hg

Humidity: 100%

Dew Point: 50 °F

Location of St. Croix FallsLocation

Past Weather in St. Croix Falls — Graph

°F

St. Croix Falls Temperature Yesterday

Maximum temperature yesterday: 61 °F (at 2:55 PM)
Minimum temperature yesterday: 48 °F (at 12:15 AM)
Average temperature yesterday: 54 °F

High & Low Weather Summary for the Past Weeks

 TemperatureHumidityPressure
High82 °F (Sep 18, 3:35 PM)100% (Sep 14, 2:55 AM)30.40 "Hg (Sep 14, 2:55 AM)
Low41 °F (Sep 14, 6:35 AM)36% (Sep 19, 3:55 PM)29.77 "Hg (Sep 18, 5:15 PM)
Average61 °F84%30.02 "Hg
* Reported Sep 13 10:15 PM — Sep 28 10:55 PM, St. Croix Falls, Weather by CustomWeather, © 2016

Note: Actual official high and low records may vary slightly from our data, if they occured in-between our weather recording intervals... More about our weather records

Advertising

St. Croix Falls Weather History for the Previous 24 Hours

Scroll right to see more
 ConditionsComfort  
Time TempWeatherWind HumidityBarometerVisibility
10:55 PM
Wed, Sep 28
49 °FClear.3 mph100%30.40 "Hg10 mi
10:35 PM50 °FClear.3 mph100%30.39 "Hg10 mi
10:15 PM51 °FClear.3 mph100%30.39 "Hg10 mi
9:55 PM51 °FClear.3 mph100%30.38 "Hg10 mi
9:35 PM51 °FClear.No wind97%30.38 "Hg10 mi
9:15 PM52 °FClear.3 mph85%30.37 "Hg10 mi
8:55 PM54 °FClear.5 mph82%30.37 "Hg10 mi
8:15 PM56 °FPassing clouds.7 mph77%30.36 "Hg10 mi
7:55 PM57 °FOvercast.6 mph76%30.35 "Hg10 mi
7:15 PM57 °FOvercast.6 mph75%30.34 "Hg10 mi
6:55 PM58 °FOvercast.7 mph75%30.34 "Hg10 mi
6:35 PM58 °FOvercast.6 mph75%30.33 "Hg10 mi
6:15 PM58 °FOvercast.7 mph74%30.32 "Hg10 mi
5:55 PM59 °FMore clouds than sun.8 mph72%30.32 "Hg10 mi
5:15 PM59 °FMore clouds than sun.6 mph72%30.30 "Hg10 mi
4:55 PM59 °FOvercast.8 mph71%30.29 "Hg10 mi
4:15 PM60 °FMostly cloudy.7 mph71%30.27 "Hg10 mi
3:55 PM60 °FMostly cloudy.8 mph71%30.26 "Hg10 mi
3:35 PM61 °FMore clouds than sun.10 mph69%30.26 "Hg10 mi
3:15 PM60 °FMore clouds than sun.10 mph68%30.25 "Hg10 mi
2:55 PM61 °FMostly cloudy.6 mph68%30.24 "Hg10 mi
2:15 PM60 °FCloudy.9 mph69%30.23 "Hg10 mi
1:55 PM60 °FMore clouds than sun.6 mph69%30.23 "Hg10 mi
1:15 PM60 °FOvercast.10 mph68%30.21 "Hg10 mi
12:55 PM60 °FMostly cloudy.10 mph70%30.21 "Hg10 mi
12:35 PM59 °FOvercast.10 mph71%30.20 "Hg10 mi
12:15 PM59 °FOvercast.12 mph72%30.20 "Hg10 mi
11:55 AM59 °FOvercast.9 mph72%30.19 "Hg10 mi
11:35 AM57 °FOvercast.8 mph76%30.19 "Hg10 mi
11:15 AM57 °FOvercast.10 mph76%30.18 "Hg10 mi
10:55 AM58 °FMostly cloudy.8 mph75%30.17 "Hg10 mi
10:15 AM56 °FOvercast.8 mph79%30.16 "Hg10 mi
9:55 AM55 °FOvercast.9 mph80%30.15 "Hg10 mi
9:15 AM54 °FBroken clouds.9 mph100%30.13 "Hg10 mi
8:55 AM54 °FMore clouds than sun.10 mph100%30.12 "Hg10 mi
8:35 AM53 °FOvercast.9 mph100%30.11 "Hg10 mi
8:15 AM52 °FOvercast.9 mph100%30.11 "Hg10 mi
7:55 AM52 °FMostly cloudy.8 mph100%30.10 "Hg10 mi
7:35 AM52 °FMore clouds than sun.8 mph100%30.09 "Hg10 mi
7:15 AM51 °FMostly cloudy.9 mph100%30.07 "Hg10 mi
6:55 AM51 °FMostly cloudy.9 mph100%30.06 "Hg10 mi
6:15 AM50 °FMostly cloudy.9 mph100%30.04 "Hg10 mi
5:55 AM50 °FOvercast.7 mph100%30.03 "Hg10 mi
5:15 AM49 °FMostly cloudy.8 mph100%30.02 "Hg10 mi
4:55 AM49 °FMostly cloudy.8 mph100%30.01 "Hg10 mi
4:35 AM49 °FLow clouds.7 mph100%30.00 "Hg10 mi
4:15 AM49 °FMostly cloudy.8 mph100%29.99 "Hg10 mi
3:55 AM50 °FOvercast.9 mph100%29.99 "Hg10 mi
3:15 AM49 °FOvercast.7 mph100%29.98 "Hg10 mi
2:55 AM49 °FOvercast.5 mph100%29.97 "Hg10 mi
2:35 AM49 °FMostly cloudy.7 mph100%29.96 "Hg10 mi
2:15 AM49 °FMostly cloudy.7 mph100%29.96 "Hg10 mi
1:55 AM49 °FMostly cloudy.10 mph100%29.95 "Hg10 mi
1:15 AM48 °FOvercast.7 mph100%29.94 "Hg10 mi
12:55 AM48 °FMostly cloudy.8 mph100%29.94 "Hg10 mi
12:15 AM48 °FOvercast.7 mph100%29.92 "Hg10 mi
Weather by CustomWeather, © 2016

See weather overviewHow to use our weather pages